Temperature
15 15 15 15 16 17 18 18 19 19 18 18 17 15 14 14 14 13 13 13 13 12 12 12 11 11 11 11 11 11 10 10 9 9 8 7 8 7 6 6 6 5 6
15 15 15 15 15 16 17 18 19 19 18 18 17 15 14 14 13 13 13 13 12 12 11 11 11 11 11 11 10 10 9 9 8 7 6 6 6 5 6 6 6 5 5
15 16 16 16 15 16 17 18 18 18 18 17 16 15 14 13 13 13 13 12 12 11 11 11 11 11 10 10 10 9 8 7 7 6 5 5 6 4 4 5 4 4 4
15 15 15 16 15 16 16 17 17 17 17 17 17 16 14 13 13 12 12 11 11 11 11 10 10 10 10 10 9 8 7 6 5 5 5 4 3 2 3 3 2 1 2
15 15 15 15 15 15 16 17 17 16 16 16 16 14 13 13 13 12 11 11 10 10 10 10 10 10 9 9 8 7 6 6 5 4 4 3 2 1 0 1 1 1 0
14 14 14 14 14 14 15 16 16 16 16 15 14 13 13 13 12 12 11 10 10 10 10 10 9 9 9 8 7 6 5 5 4 4 3 2 1 0 -1 -1 -0 -1 -1
14 14 14 14 13 13 14 15 16 15 15 14 13 13 12 12 12 12 11 10 10 10 9 9 9 8 8 7 6 5 5 4 3 3 2 2 1 0 -1 -2 -2 -2 -2
13 13 13 13 13 13 14 15 15 15 14 13 12 12 12 12 12 11 11 10 10 9 9 9 8 8 7 6 5 4 4 3 3 2 2 1 0 -0 -1 -2 -3 -3 -2
13 13 13 12 12 12 13 14 14 14 13 12 12 11 11 11 11 10 10 9 9 9 8 8 7 7 6 5 4 4 3 3 2 2 1 0 0 -1 -1 -3 -4 -4 -4
12 12 12 11 11 10 11 12 12 13 12 12 11 11 11 11 10 9 9 9 9 8 8 7 6 6 5 4 3 3 2 2 1 1 1 -0 -1 -1 -2 -3 -4 -5 -5
11 11 11 10 9 8 8 9 10 10 11 11 11 11 10 9 9 8 8 8 8 7 7 6 5 5 4 3 3 2 2 1 1 0 -0 -1 -2 -2 -3 -4 -5 -6 -6
10 10 9 9 8 7 7 7 8 10 10 11 10 10 9 8 8 8 8 8 7 6 6 5 4 4 3 2 2 2 1 1 0 -1 -1 -2 -3 -3 -4 -5 -6 -6 -7
8 8 8 7 6 6 6 6 8 9 10 10 10 9 8 8 8 8 7 7 6 6 5 4 3 3 2 2 1 1 1 0 -1 -1 -2 -3 -4 -4 -5 -6 -7 -7 -7
7 7 6 6 5 5 5 6 8 9 10 9 9 8 8 7 7 7 7 6 5 5 4 3 2 2 2 1 1 0 -0 -1 -1 -2 -3 -3 -5 -5 -6 -7 -7 -8 -8
6 5 5 4 4 4 5 7 8 9 9 8 8 7 7 7 7 6 6 5 4 4 3 2 2 1 1 0 -0 -1 -1 -2 -2 -3 -4 -5 -5 -6 -7 -8 -8 -8 -8
5 4 3 3 3 4 6 7 8 8 8 8 7 7 7 6 6 5 5 4 3 3 2 1 1 1 0 -0 -1 -1 -2 -3 -3 -4 -5 -6 -6 -7 -8 -8 -9 -9 -9
4 3 3 3 3 4 6 7 7 7 7 7 7 6 6 6 5 4 3 3 2 2 1 1 0 0 -0 -1 -1 -2 -2 -3 -4 -5 -6 -7 -7 -8 -9 -9 -9 -9 -8
3 3 2 2 3 4 5 7 6 6 6 6 6 6 5 5 4 3 2 2 1 1 0 0 -0 -1 -1 -1 -2 -3 -3 -4 -5 -5 -7 -7 -8 -9 -9 -9 -9 -9 -9
4 3 3 4 4 5 6 6 6 6 6 6 5 5 4 4 3 2 1 1 0 0 -0 -0 -1 -1 -2 -2 -3 -3 -4 -5 -6 -7 -7 -8 -9 -9 -9 -9 -9 -9 -9
4 4 4 4 5 5 6 6 6 6 5 5 4 4 3 2 2 1 1 0 -0 -0 -1 -1 -1 -2 -2 -3 -3 -4 -6 -7 -7 -8 -8 -8 -9 -9 -9 -9 -9 -9 -9
5 5 5 5 6 6 6 6 6 5 5 4 3 2 2 1 1 0 -0 -0 -1 -1 -1 -2 -2 -3 -3 -4 -4 -5 -7 -8 -8 -9 -9 -9 -9 -9 -9 -9 -10 -10 -10
4 5 5 5 5 5 6 6 5 4 4 3 2 2 1 1 0 -0 -1 -1 -1 -2 -2 -2 -3 -3 -4 -5 -5 -6 -7 -9 -9 -9 -9 -9 -9 -9 -9 -9 -9 -10 -10
4 4 5 5 4 4 5 5 4 3 3 2 1 1 0 -0 -0 -1 -1 -2 -2 -2 -3 -3 -4 -4 -5 -5 -6 -7 -8 -9 -9 -10 -10 -9 -9 -9 -9 -9 -9 -9 -9
4 4 4 4 4 4 4 4 3 2 2 1 1 0 -0 -1 -1 -1 -2 -2 -3 -3 -4 -5 -5 -6 -6 -7 -8 -9 -9 -9 -10 -10 -9 -9 -9 -9 -9 -9 -9 -9 -10
3 3 4 4 4 3 3 3 2 2 1 1 0 -0 -1 -1 -2 -2 -2 -3 -3 -4 -5 -6 -6 -7 -8 -8 -9 -10 -10 -10 -10 -10 -10 -10 -10 -9 -9 -9 -9 -9 -9
3 3 4 4 3 3 2 2 1 1 0 0 -1 -1 -1 -2 -2 -3 -3 -3 -4 -5 -6 -6 -7 -7 -8 -9 -9 -10 -10 -10 -10 -10 -10 -10 -10 -10 -10 -9 -9 -9 -9
Wind_Speed
22 20 19 17 15 14 13 13 13 14 14 12 12 10 9 8 7 7 11 13 14 14 12 9 8 6 6 5 5 4 5 5 5 4 3 1 2 3 3 2 4 3 4
24 23 21 18 16 15 14 13 14 15 16 14 12 9 9 7 8 8 10 13 14 13 11 10 8 7 7 7 6 4 3 4 5 4 4 3 2 2 3 4 4 5 6
25 24 24 22 18 17 15 13 15 16 17 16 12 11 9 7 6 8 8 10 12 12 12 11 9 8 7 6 6 5 4 3 3 4 4 3 3 5 5 5 5 6 7
22 23 23 23 21 18 15 14 15 16 17 18 17 19 12 10 8 9 9 10 12 12 12 12 11 9 7 7 6 4 3 2 2 2 2 2 3 4 5 5 6 7 9
20 21 22 22 21 18 15 14 16 16 18 18 19 18 14 12 12 12 14 12 10 11 12 12 10 9 7 7 6 4 3 2 1 2 2 2 3 5 5 8 9 9 9
18 19 19 19 19 17 15 15 17 17 18 18 18 18 19 19 19 17 15 11 9 9 11 11 10 9 7 6 5 3 2 1 0 2 3 4 4 5 6 8 12 13 11
15 16 17 17 17 18 17 17 19 19 19 19 18 18 20 22 22 19 16 14 11 9 10 9 9 8 7 6 4 3 1 1 2 3 4 4 5 6 7 10 12 14 14
14 15 15 15 17 19 19 20 20 20 20 19 18 18 19 15 15 16 15 13 10 10 11 10 9 8 7 5 3 2 1 2 3 4 5 5 6 6 7 9 12 14 12
14 14 14 14 16 19 20 21 21 21 20 20 20 19 18 16 16 16 14 11 11 11 11 10 9 8 6 4 2 1 2 3 4 4 5 6 6 6 7 8 9 11 15
15 14 11 12 14 17 18 19 20 21 21 21 19 17 18 17 16 15 15 14 14 12 11 10 8 7 5 3 1 1 2 4 4 4 6 7 6 7 8 9 10 11 14
15 12 9 9 13 15 17 18 20 21 20 20 20 20 18 17 16 15 15 14 13 12 10 9 7 6 4 2 1 2 3 5 5 6 7 8 9 8 9 9 10 12 13
14 10 6 9 14 16 17 19 20 20 20 20 20 20 19 17 16 16 15 14 13 11 9 8 6 4 2 1 2 3 4 6 7 7 8 9 8 11 10 10 12 12 14
9 3 5 11 15 16 17 18 19 19 19 20 20 20 18 17 17 16 15 13 12 10 9 7 5 3 2 1 3 4 6 7 8 8 9 10 11 12 11 13 13 13 14
3 5 9 13 15 16 17 18 18 19 20 20 20 19 18 17 16 15 14 12 11 9 8 6 4 2 1 2 4 6 8 8 9 9 9 11 12 13 14 13 14 14 16
5 9 12 14 15 16 17 17 18 18 19 20 19 18 17 16 15 14 13 11 10 8 6 5 3 1 1 3 6 7 9 10 10 10 10 11 13 16 15 14 15 16 16
8 12 14 15 16 16 17 18 18 18 18 19 19 18 17 16 14 13 12 10 9 7 5 3 1 1 2 5 8 9 10 10 10 11 12 12 13 15 19 21 21 21 19
12 13 14 14 15 16 18 19 19 18 18 19 18 17 16 15 13 12 11 9 7 5 4 2 1 3 4 6 9 11 11 11 11 12 12 11 12 17 15 18 22 22 24
13 14 14 14 15 16 17 18 18 19 19 18 17 16 15 14 12 11 9 7 5 4 2 0 2 4 4 7 10 12 11 10 11 12 13 14 15 15 17 19 19 19 19
14 14 14 16 16 17 18 19 19 18 18 17 16 15 14 13 11 10 8 6 4 2 1 1 3 5 5 7 10 12 10 10 12 13 14 15 16 19 22 20 19 20 18
14 15 16 17 17 17 18 19 19 18 17 16 15 14 12 12 10 9 7 4 3 1 1 2 3 5 6 8 11 13 9 11 11 12 13 16 17 21 23 19 18 20 18
16 17 17 16 16 17 18 18 18 16 16 15 14 12 11 10 9 7 5 4 2 0 2 4 4 5 6 8 11 13 10 11 12 12 12 13 19 23 25 23 18 19 20
16 16 16 15 15 16 18 18 17 16 15 14 13 12 10 8 7 6 4 2 1 2 4 5 6 5 6 7 11 15 15 15 14 13 13 14 23 25 25 19 18 22 20
15 15 17 17 14 14 16 19 16 15 15 14 12 11 9 7 5 4 3 1 1 3 4 5 6 7 7 8 13 15 17 18 14 13 18 22 24 22 17 17 20 17 11
15 16 17 17 15 14 14 17 16 15 15 14 11 9 8 6 5 3 2 1 2 3 5 6 7 8 9 9 9 11 13 15 14 14 17 21 20 16 16 15 12 10 10
14 15 16 17 17 16 15 14 14 14 14 12 10 8 6 5 3 2 1 2 2 4 6 7 7 9 10 12 18 15 13 13 14 16 13 11 11 11 10 11 11 10 10
15 16 17 17 16 16 15 12 12 12 13 10 8 5 4 3 2 1 1 1 3 6 7 8 10 10 13 18 19 19 19 20 20 15 10 10 10 11 11 12 12 12 11
Wind_Direction
258 256 254 252 246 237 227 216 202 189 179 178 177 171 164 149 136 133 136 136 134 131 125 125 124 122 114 110 105 89 60 32 357 335 328 201 187 203 198 241 262 264 294
253 250 247 244 238 230 219 207 196 184 179 179 175 168 144 125 117 117 121 127 128 128 127 128 125 121 115 105 91 80 66 42 19 356 332 316 223 184 221 273 271 282 293
249 245 240 235 230 225 214 201 192 182 178 169 153 136 121 116 114 119 117 121 123 123 125 125 122 119 114 104 91 78 66 49 39 20 359 329 312 313 276 274 279 287 300
246 243 239 232 224 220 210 198 187 179 173 165 164 163 162 154 149 141 129 122 120 122 123 122 120 116 112 109 100 86 75 50 26 32 8 326 309 295 300 279 274 286 296
251 246 240 234 225 215 202 190 180 176 172 172 171 169 157 140 133 130 128 122 121 122 124 122 119 115 112 109 108 101 82 62 13 338 323 296 278 266 280 294 301 299 294
260 254 247 236 226 210 194 183 175 174 172 171 169 164 149 143 141 142 137 132 131 127 127 124 120 118 116 115 115 111 106 71 324 291 291 294 290 294 285 289 298 301 302
271 261 249 233 218 202 188 180 174 170 170 167 164 157 153 150 150 148 146 144 141 138 136 130 125 120 118 120 121 121 132 212 270 283 288 282 278 286 283 286 295 298 299
281 271 255 233 213 197 187 180 173 168 166 162 155 150 149 146 146 146 145 144 140 137 135 130 125 123 125 128 132 149 193 243 267 281 286 284 283 282 281 288 298 301 297
292 281 264 234 210 194 185 178 170 163 160 154 147 145 145 143 142 140 136 132 131 133 133 131 128 127 130 134 149 189 247 266 281 289 289 287 288 286 285 285 287 292 299
304 291 269 229 203 189 179 171 164 157 152 147 143 141 141 139 138 136 135 133 132 133 135 133 132 134 138 147 184 237 264 280 288 292 293 296 293 293 289 286 285 283 286
308 296 267 213 185 171 165 159 153 148 145 142 139 137 137 137 134 132 132 131 132 135 135 135 136 139 144 161 218 264 276 287 294 293 294 297 299 296 293 291 287 285 286
305 291 247 177 162 158 155 151 147 144 141 138 136 134 134 134 132 131 130 131 131 132 132 134 136 138 148 198 261 280 286 293 297 299 298 297 300 296 295 293 290 289 289
301 265 169 155 152 151 148 144 141 138 137 135 133 132 133 133 131 130 129 129 129 129 130 134 136 141 163 243 279 289 294 294 295 297 296 298 300 299 299 297 294 292 291
254 163 147 144 143 143 141 138 136 135 135 134 132 131 132 131 129 128 128 128 129 130 131 131 131 141 212 270 289 294 295 295 294 293 291 293 296 298 300 298 295 295 295
161 146 140 137 137 137 135 134 133 135 134 131 128 127 126 125 125 126 126 126 125 125 128 131 134 164 277 298 307 303 299 297 296 294 291 291 294 294 295 295 297 299 297
150 139 136 137 138 139 136 133 133 133 131 127 125 125 126 126 125 126 126 125 124 127 131 131 141 293 310 315 307 310 304 298 296 297 298 297 294 295 297 297 297 295 292
145 141 141 141 141 140 138 135 133 130 126 124 125 127 127 126 126 127 127 127 128 132 134 136 289 309 318 313 313 312 305 298 297 298 299 299 299 302 300 299 298 294 292
141 139 138 136 135 133 132 129 128 127 125 124 126 128 128 127 128 129 127 126 128 133 136 83 317 308 312 315 314 314 304 298 296 297 299 300 302 303 305 304 300 298 296
135 134 135 133 132 133 133 129 126 126 125 126 128 130 130 130 131 129 127 128 131 129 103 310 306 306 310 315 315 318 310 300 300 300 299 299 299 303 306 306 304 303 300
123 126 128 129 131 134 134 128 127 126 126 127 127 128 129 129 128 127 126 122 121 104 315 298 299 301 308 314 317 320 310 305 306 304 301 300 302 306 309 308 307 304 306
122 126 128 129 132 135 131 125 123 123 123 122 121 120 120 120 121 119 117 119 111 330 310 307 304 299 304 311 316 318 314 310 308 306 305 304 308 309 310 310 305 302 305
122 125 123 123 129 132 128 120 119 121 121 119 116 115 115 114 117 118 117 111 57 321 319 316 315 311 311 307 315 318 314 312 308 305 305 306 309 311 312 310 305 306 307
121 123 122 121 121 122 123 120 123 125 122 118 116 115 114 111 115 115 112 96 352 328 323 319 315 317 318 317 318 318 316 315 310 304 305 308 310 313 311 307 308 309 304
121 123 121 118 114 113 114 120 125 126 123 120 120 120 118 115 111 102 84 16 342 329 321 317 316 316 316 320 324 322 319 317 313 311 309 309 309 309 306 307 308 305 300
120 120 118 116 115 116 116 120 125 126 121 120 119 117 114 115 108 90 31 342 332 322 320 319 318 317 316 319 321 319 316 317 314 316 309 309 312 314 314 313 310 309 307
117 115 114 115 116 116 115 117 123 124 123 121 119 115 114 107 86 34 348 256 293 317 318 319 319 315 312 317 319 319 318 319 319 317 307 309 312 312 313 312 311 310 309
Height
1453 1454 1455 1456 1457 1459 1462 1465 1467 1469 1471 1473 1475 1478 1481 1485 1489 1492 1495 1498 1502 1504 1507 1509 1511 1512 1512 1512 1512 1510 1509 1507 1504 1503 1500 1497 1495 1494 1493 1492 1491 1489 1487
1443 1444 1446 1448 1449 1451 1454 1457 1460 1462 1464 1467 1470 1473 1476 1480 1484 1487 1491 1495 1498 1501 1504 1506 1508 1509 1510 1510 1509 1508 1506 1504 1502 1500 1499 1498 1497 1493 1492 1490 1488 1487 1484
1432 1433 1435 1438 1440 1443 1446 1449 1453 1455 1458 1461 1463 1466 1470 1474 1479 1483 1487 1491 1495 1498 1501 1504 1506 1507 1508 1507 1507 1505 1504 1502 1500 1499 1498 1497 1496 1493 1489 1487 1485 1482 1479
1422 1423 1424 1427 1430 1434 1438 1442 1445 1448 1451 1454 1457 1460 1464 1469 1474 1479 1484 1488 1492 1495 1499 1501 1503 1505 1505 1505 1504 1502 1501 1500 1498 1496 1495 1494 1492 1490 1486 1482 1479 1476 1472
1414 1414 1415 1418 1422 1426 1430 1435 1438 1442 1445 1449 1452 1457 1461 1465 1471 1476 1480 1485 1489 1493 1496 1499 1501 1502 1502 1501 1500 1499 1498 1497 1496 1494 1492 1489 1488 1486 1483 1478 1475 1471 1467
1408 1407 1408 1410 1414 1418 1421 1427 1431 1435 1439 1443 1447 1451 1455 1461 1466 1472 1477 1482 1486 1490 1493 1496 1498 1499 1499 1498 1497 1496 1495 1494 1492 1490 1488 1486 1485 1483 1479 1474 1469 1465 1461
1401 1400 1401 1402 1405 1408 1412 1419 1424 1429 1433 1438 1442 1447 1452 1459 1464 1469 1474 1479 1484 1488 1491 1494 1495 1496 1496 1495 1494 1493 1492 1490 1489 1487 1484 1482 1480 1477 1474 1470 1464 1459 1455
1395 1394 1394 1395 1397 1400 1405 1411 1417 1423 1428 1433 1438 1443 1450 1456 1462 1467 1472 1478 1482 1486 1489 1491 1492 1493 1492 1492 1491 1490 1489 1487 1485 1483 1480 1478 1475 1472 1469 1465 1461 1453 1448
1389 1388 1388 1388 1390 1393 1398 1405 1411 1417 1423 1428 1433 1440 1447 1453 1459 1465 1471 1477 1481 1484 1487 1489 1489 1490 1489 1489 1488 1487 1485 1483 1481 1479 1476 1473 1470 1467 1463 1460 1456 1452 1442
1384 1382 1381 1382 1385 1388 1393 1400 1407 1412 1418 1424 1431 1437 1444 1452 1458 1464 1470 1475 1479 1483 1485 1486 1487 1487 1486 1486 1485 1483 1482 1480 1477 1474 1471 1468 1465 1461 1458 1454 1451 1447 1440
1379 1377 1377 1378 1381 1385 1390 1396 1403 1409 1415 1422 1429 1436 1443 1451 1457 1464 1469 1474 1478 1480 1482 1483 1484 1484 1483 1482 1481 1480 1478 1475 1473 1469 1466 1463 1459 1456 1452 1449 1445 1441 1435
1374 1373 1373 1375 1378 1382 1388 1393 1400 1407 1414 1421 1428 1436 1443 1450 1457 1463 1468 1472 1476 1478 1480 1481 1481 1481 1480 1479 1478 1476 1474 1471 1468 1465 1461 1458 1454 1450 1447 1443 1438 1434 1429
1371 1370 1371 1374 1377 1382 1387 1393 1399 1406 1414 1421 1429 1436 1443 1451 1457 1462 1467 1471 1474 1476 1477 1478 1478 1478 1477 1476 1474 1472 1469 1466 1463 1460 1456 1452 1448 1445 1441 1437 1433 1428 1423
1369 1369 1371 1374 1378 1383 1387 1393 1400 1407 1415 1423 1430 1437 1445 1451 1457 1462 1466 1469 1472 1474 1475 1475 1475 1475 1473 1472 1470 1467 1464 1461 1458 1454 1450 1446 1443 1439 1435 1431 1427 1423 1418
1368 1369 1372 1375 1379 1384 1389 1394 1401 1409 1417 1424 1431 1439 1446 1452 1457 1462 1465 1468 1470 1472 1473 1473 1472 1471 1470 1468 1465 1462 1459 1456 1452 1449 1445 1441 1437 1433 1429 1425 1421 1417 1412
1368 1370 1373 1376 1380 1385 1390 1396 1404 1411 1419 1426 1433 1441 1447 1453 1458 1462 1464 1467 1468 1470 1470 1470 1469 1468 1466 1464 1461 1458 1454 1451 1447 1443 1439 1435 1431 1427 1423 1419 1415 1411 1407
1367 1370 1374 1378 1382 1387 1392 1399 1406 1414 1422 1429 1436 1443 1449 1454 1458 1461 1464 1465 1467 1468 1468 1467 1466 1464 1462 1459 1456 1452 1449 1445 1441 1437 1433 1429 1425 1421 1416 1412 1408 1404 1400
1368 1372 1376 1380 1385 1391 1397 1403 1411 1418 1426 1433 1439 1445 1450 1454 1458 1460 1463 1464 1465 1465 1465 1464 1462 1460 1457 1454 1451 1447 1443 1439 1435 1432 1427 1423 1419 1415 1411 1406 1401 1397 1393
1370 1374 1379 1383 1388 1395 1401 1408 1415 1423 1430 1436 1441 1446 1451 1455 1458 1460 1462 1463 1463 1463 1462 1461 1458 1456 1453 1449 1446 1441 1437 1433 1430 1426 1422 1418 1414 1410 1405 1401 1395 1389 1384
1374 1378 1383 1388 1394 1400 1407 1413 1420 1426 1432 1438 1443 1448 1452 1455 1458 1459 1460 1461 1461 1460 1459 1457 1454 1451 1448 1445 1441 1436 1432 1428 1425 1421 1417 1413 1409 1404 1400 1395 1389 1382 1377
1379 1384 1388 1394 1400 1406 1412 1418 1424 1430 1435 1441 1445 1449 1453 1455 1457 1458 1459 1459 1458 1457 1456 1453 1450 1447 1443 1440 1436 1432 1428 1424 1420 1416 1412 1407 1403 1398 1393 1389 1383 1376 1371
1385 1389 1394 1399 1406 1412 1417 1422 1427 1433 1438 1443 1447 1450 1453 1455 1457 1457 1457 1457 1456 1454 1452 1449 1447 1443 1439 1435 1431 1427 1424 1420 1415 1410 1406 1401 1396 1391 1386 1380 1375 1370 1365
1390 1394 1399 1404 1410 1416 1422 1425 1431 1436 1441 1445 1448 1451 1453 1455 1456 1456 1455 1454 1453 1450 1448 1445 1442 1438 1435 1431 1426 1422 1418 1414 1410 1405 1400 1395 1389 1384 1378 1374 1369 1364 1359
1394 1399 1403 1408 1414 1420 1426 1431 1435 1439 1443 1447 1449 1452 1453 1454 1454 1454 1453 1451 1449 1447 1444 1440 1437 1433 1430 1426 1422 1417 1413 1408 1404 1399 1393 1388 1383 1378 1373 1368 1364 1359 1355
1399 1403 1408 1412 1418 1425 1430 1435 1439 1442 1445 1448 1450 1452 1453 1453 1453 1452 1451 1449 1446 1444 1440 1437 1433 1429 1425 1421 1417 1413 1408 1403 1399 1393 1388 1383 1378 1373 1369 1364 1360 1355 1350
1403 1407 1413 1418 1423 1429 1434 1438 1442 1445 1447 1449 1450 1451 1452 1452 1451 1450 1448 1445 1444 1440 1437 1433 1429 1425 1421 1416 1412 1407 1403 1398 1393 1388 1383 1379 1375 1370 1365 1360 1355 1351 1346